Home   Weather   Oulu   Past weeks

Flag for Finland Past Weather in Oulu, Finland — Yesterday and Last 2 Weeks

Now
52 °F

Clear.


Feels Like: 51 °F
Forecast: 49 / 69 °F
Wind: 3 mph from Southeast

Location: Oulu Airport

Current Time: Aug 18, 2017 at 12:38:59 am

Latest Report: Aug 17, 2017 at 11:50 pm


Visibility: 10 mi

Pressure: 30.07 "Hg

Humidity: 77%

Dew Point: 45 °F

Location of OuluLocation

Past Weather in Oulu — Graph

°F

Oulu Temperature Yesterday

Maximum temperature yesterday: 64 °F (at 1:50 pm)
Minimum temperature yesterday: 54 °F (at 11:20 pm)
Average temperature yesterday: 60 °F

High & Low Weather Summary for the Past Weeks

 TemperatureHumidityPressure
High73 °F (Aug 12, 3:20 pm)100% (Aug 8, 3:50 am)30.18 "Hg (Aug 8, 3:50 am)
Low46 °F (Aug 8, 3:50 am)38% (Aug 16, 3:20 pm)29.42 "Hg (Aug 13, 5:20 am)
Average60 °F76%29.80 "Hg
* Reported Aug 2 11:20 pm — Aug 17 11:20 pm, Oulu. Weather by CustomWeather, © 2017

Note: Actual official high and low records may vary slightly from our data, if they occured in-between our weather recording intervals... More about our weather records

Advertising

Oulu Weather History for the Previous 24 Hours

Scroll right to see more
 ConditionsComfort  
Time TempWeatherWind HumidityBarometerVisibility
11:20 pm
Thu, Aug 17
54 °FClear.2 mph72%30.07 "Hg10 mi
10:50 pm55 °FClear.2 mph72%30.07 "Hg10 mi
10:20 pm55 °FClear.2 mph72%30.07 "Hg10 mi
9:50 pm55 °FClear.2 mph77%30.07 "Hg10 mi
9:20 pm59 °FSunny.3 mph68%30.07 "Hg10 mi
8:50 pm61 °FSunny.2 mph59%30.07 "Hg10 mi
8:20 pm63 °FSunny.2 mph52%30.07 "Hg10 mi
7:50 pm64 °FSunny.2 mph46%30.09 "Hg10 mi
7:20 pm64 °FSunny.2 mph49%30.09 "Hg10 mi
6:50 pm64 °FSunny.6 mph43%30.09 "Hg10 mi
6:20 pm64 °FSunny.7 mph43%30.09 "Hg10 mi
5:50 pm64 °FSunny.8 mph43%30.09 "Hg10 mi
5:20 pm64 °FSunny.9 mph46%30.09 "Hg10 mi
4:50 pm64 °FPassing clouds.9 mph46%30.09 "HgN/A
3:50 pm64 °FSunny.12 mph43%30.09 "Hg10 mi
3:20 pm64 °FSunny.13 mph46%30.09 "Hg10 mi
2:50 pm64 °FSunny.12 mph56%30.09 "Hg10 mi
2:20 pm64 °FSunny.9 mph56%30.09 "Hg10 mi
1:50 pm64 °FPassing clouds.9 mph49%30.09 "HgN/A
1:20 pm63 °FSunny.12 mph49%30.09 "Hg10 mi
12:50 pm63 °FPassing clouds.10 mph52%30.09 "HgN/A
12:20 pm63 °FSunny.12 mph56%30.09 "Hg10 mi
11:50 am61 °FSunny.12 mph68%30.09 "Hg10 mi
11:20 am59 °FSunny.14 mph68%30.09 "Hg10 mi
10:50 am59 °FSunny.14 mph68%30.07 "Hg10 mi
10:20 am59 °FPassing clouds.14 mph72%30.07 "HgN/A
9:50 am59 °FPassing clouds.15 mph72%30.07 "HgN/A
9:20 am59 °FPassing clouds.12 mph72%30.07 "HgN/A
8:50 am59 °FPassing clouds.13 mph72%30.04 "HgN/A
8:20 am59 °FSunny.14 mph72%30.04 "Hg10 mi
7:50 am57 °FSunny.10 mph77%30.04 "Hg10 mi
7:20 am57 °FSunny.10 mph77%30.01 "Hg10 mi
6:50 am55 °FPassing clouds.10 mph82%30.01 "HgN/A
6:20 am57 °FSunny.12 mph82%30.01 "Hg10 mi
5:50 am55 °FSunny.10 mph88%29.98 "Hg10 mi
5:20 am57 °FPassing clouds.12 mph82%29.98 "HgN/A
4:50 am57 °FPassing clouds.13 mph82%29.98 "HgN/A
4:20 am59 °FPassing clouds.12 mph82%29.95 "HgN/A
3:50 am59 °FPassing clouds.10 mph88%29.95 "HgN/A
2:50 am63 °FMostly cloudy.10 mph73%29.95 "HgN/A
2:20 am63 °FPassing clouds.13 mph73%29.95 "HgN/A
1:50 am61 °FPassing clouds.9 mph77%29.95 "HgN/A
1:20 am61 °FMostly cloudy.9 mph77%29.95 "HgN/A
12:50 am61 °FLight rain. Overcast.7 mph77%29.95 "HgN/A
12:20 am61 °FLight rain. Overcast.8 mph77%29.95 "HgN/A
Weather by CustomWeather, © 2017

See weather overviewHow to use our weather pages